This is the latest recevied weather packets stored in our database for station/object KC2TER. If no packets are shown the sender has not sent any weather packets the latest 10 day(s).
| Time | Temp. | Humidity | Pressure | Rain* | Wind** | Luminosity | Snow |
|---|---|---|---|---|---|---|---|
| 1777507515 | 10° C | 93% | 1011.3 hPa | 0 mm | - | 0 W/m² | - |
| 1777507211 | 10° C | 93% | 1011.2 hPa | 0 mm | - | 0 W/m² | - |
| 1777506909 | 10° C | 93% | 1011.5 hPa | 0 mm | - | 0 W/m² | - |
| 1777506606 | 10° C | 93% | 1011.3 hPa | 0 mm | - | 0 W/m² | - |
| 1777506302 | 10° C | 93% | 1011.5 hPa | 0 mm | - | 0 W/m² | - |
| 1777505998 | 10° C | 92% | 1011.5 hPa | 0 mm | - | 0 W/m² | - |
| 1777505694 | 10° C | 92% | 1011.4 hPa | 0 mm | - | 0 W/m² | - |
| 1777505391 | 10° C | 92% | 1011.1 hPa | 0 mm | - | 1 W/m² | - |
| 1777505087 | 10° C | 92% | 1011.3 hPa | 0 mm | - | 3 W/m² | - |
| 1777504784 | 10° C | 92% | 1011.3 hPa | 0 mm | - | 3 W/m² | - |
| 1777504482 | 10° C | 91% | 1011.6 hPa | 0 mm | - | 5 W/m² | - |
| 1777504177 | 10° C | 91% | 1011.6 hPa | 0 mm | - | 7 W/m² | - |
| 1777503873 | 10° C | 91% | 1011.6 hPa | 0 mm | - | 10 W/m² | - |
| 1777503569 | 10° C | 91% | 1011.6 hPa | 0 mm | - | 12 W/m² | - |
| 1777503267 | 10° C | 91% | 1011.6 hPa | 0 mm | - | 15 W/m² | - |
| 1777502963 | 10° C | 91% | 1011.6 hPa | 0 mm | - | 16 W/m² | - |
| 1777502661 | 10° C | 90% | 1011.6 hPa | 0 mm | - | 22 W/m² | - |
| 1777502357 | 10° C | 90% | 1011.3 hPa | 0 mm | - | 32 W/m² | - |
| 1777502054 | 10.56° C | 90% | 1011.2 hPa | 0 mm | - | 42 W/m² | - |
| 1777501750 | 10° C | 90% | 1011.1 hPa | 0 mm | - | 48 W/m² | - |
| 1777501448 | 10.56° C | 90% | 1011.1 hPa | 0 mm | - | 42 W/m² | - |
| 1777501145 | 10.56° C | 89% | 1011.2 hPa | 0 mm | - | 35 W/m² | - |
| 1777500844 | 10.56° C | 89% | 1011.4 hPa | 0 mm | - | 42 W/m² | - |
| 1777500540 | 10.56° C | 89% | 1011.5 hPa | 0 mm | - | 75 W/m² | - |
| 1777500237 | 10.56° C | 89% | 1011.3 hPa | 0 mm | - | 95 W/m² | - |
* Rain latest hour (hover to see other rain measurements)
** Current wind speed in m/s (hover to see current wind gust speed)